Location: Antioch Baptist Church
(32.6696°N, 85.7327°W)
Time: 20:46:30
(UTC+00:00)

Cosmos 2233 Rocket - Pass Details

Date: 14 July 2020
Orbit: 954 x 990 km, 82.9° (Epoch: 13 August)

Event Time Altitude Azimuth Distance (km) Brightness Sun altitude
Exits shadow 07:53:28 69° 155° (SSE) 1,029 3.9 -28.1°
Maximum altitude 07:54:11 80° 94° (E) 986 3.9 -28.0°
Drops below altitude 10° 08:00:26 10° 9° (N) 2,726 7.1 -27.3°
Sets 08:02:57 0° 8° (N) 3,682 8.0 -27.0°
